Skip Page Navigation
NASA JPL Caltech
NASA Logo - Jet Propulsion Laboratory + View the NASA Portal
+ Center for Near-Earth Object Studies
JPL Home Earth Solar System Stars & Galaxies Technology
JPL Solar System Dynamics
BODIES ORBITS EPHEMERIDES TOOLS PHYSICAL DATA DISCOVERY FAQ SITE MAP
JPL Small-Body Database Browser
Search: [ help ]  
277070 (2005 EU115)
Classification: Outer Main-belt Asteroid          SPK-ID: 2277070
Ephemeris | Orbit Diagram | Orbital Elements | Mission Design | Physical Parameters | Discovery Circumstances | Close-Approach Data ]

[ show orbit diagram ]
Orbital Elements at Epoch 2459000.5 (2020-May-31.0) TDB
Reference: JPL 14 (heliocentric ecliptic J2000)
 Element Value Uncertainty (1-sigma)   Units 
e .1472569332604107 5.6767e-08  
a 3.21983860601205 4.0928e-08 au
q 2.745695047297239 1.9366e-07 au
i 5.388849853826575 7.571e-06 deg
node 169.8279896478086 6.627e-05 deg
peri 298.5171234094813 7.2668e-05 deg
M 279.3624825832241 2.677e-05 deg
tp 2459473.198506059358
(2021-Sep-15.69850606)
0.00015882 TDB
period 2110.326156270856
5.78
4.0237e-05
1.102e-07
d
yr
n .170589744590075 3.2526e-09 deg/d
Q 3.69398216472686 4.6955e-08 au
  Orbit Determination Parameters
   # obs. used (total)      164  
   data-arc span      6202 days (16.98 yr)  
   first obs. used      2003-11-18  
   last obs. used      2020-11-10  
   planetary ephem.      DE431  
   SB-pert. ephem.      SB431-N16  
   condition code      0  
   norm. resid. RMS      .54366  
   source      ORB  
   producer      Otto Matic  
   solution date      2020-Dec-18 05:58:05  

Additional Information
 Earth MOID = 1.76758 au 
 Jupiter MOID = 1.4633 au 
 T_jup = 3.165 
[ show covariance matrix ]

Ephemeris | Orbit Diagram | Orbital Elements | Mission Design | Physical Parameters | Discovery Circumstances | Close-Approach Data ]

Physical Parameter Table
Parameter Symbol Value Units Sigma Reference Notes
absolute magnitude H 16.0   n/a MPO418473  
diameter diameter 3.199 km 0.661 urn:nasa:pds:neowise_diameters_albedos::2.0[mainbelt] (http://adsabs.harvard.edu/abs/2011ApJ...741...68M)  
geometric albedo albedo 0.069   0.038 urn:nasa:pds:neowise_diameters_albedos::2.0[mainbelt] (http://adsabs.harvard.edu/abs/2011ApJ...741...68M)  

277070 (2005 EU115)          Discovered 2005-Mar-04 by Mt. Lemmon Survey at Mount Lemmon
Reference: 20110517/Numbers.arcLast Updated: 2011-05-20

[ hide close-approach data ]
Close-Approach Data   ...sorted by Date/Time (TDB)
Date/Time (TDB) Time Uncertainty
(days_HH:MM)
Body Nominal Distance (au) Minimum Distance (au) Maximum Distance (au) V-relative (km/s) V-infinity (km/s) JD (TDB) Time Uncertainty (minutes) Semi-major axis (km) Semi-minor axis (km) range-LOV angle (deg) N-sigma BP Orbit Ref. Reference Modified
1901-Nov-27 09:50 00:11 Jupiter 1.66494246758221 1.66494166862625 1.66494326654119 2.00352536771733 1.73107893455408 2415715.909551998 11.1443498467079 273.13165092378 31.3289867521944 -67.3697183189218 1400217.00540684 T 14 CATAB v2.0f-lin.ifort 2020-Dec-18 05:58:06 2020-Dec-18 05:58
1913-Jul-08 19:24 00:09 Jupiter 1.66279148190514 1.6627902655218 1.66279269828979 1.91679668042305 1.62951332668973 2419957.308443926 8.77265881241779 135.388181343821 31.4453869860552 -68.914194525549 1673346.55468408 T 14 CATAB v2.0f-lin.ifort 2020-Dec-18 05:58:06 2020-Dec-18 05:58
1925-Feb-25 01:19 00:07 Jupiter 1.67824489465627 1.67824338395911 1.67824640535152 1.90986527651011 1.62424465380737 2424206.554703279 6.96409149539207 88.8552149222899 22.2716472101916 -75.7502413403481 990692.23861862 T 14 CATAB v2.0f-lin.ifort 2020-Dec-18 05:58:06 2020-Dec-18 05:58
1936-Oct-15 13:50 00:06 Jupiter 1.70088905933658 1.70088742030825 1.7008906983623 1.94928189011341 1.67443234603068 2428457.076295677 5.60197212776403 102.830907496288 16.9817086418505 -73.664247798572 882604.594547051 T 14 CATAB v2.0f-lin.ifort 2020-Dec-18 05:58:06 2020-Dec-18 05:58
1948-May-28 09:16 00:05 Jupiter 1.73423174646325 1.73423008634167 1.73423340658285 2.04363764266945 1.78875024723582 2432699.886099182 4.5379270642236 119.391804124418 12.1544211598166 -78.6498751699359 971525.86374984 T 14 CATAB v2.0f-lin.ifort 2020-Dec-18 05:58:06 2020-Dec-18 05:58
1959-Dec-26 21:35 00:04 Jupiter 1.78776223503164 1.78776066214732 1.78776380791524 2.22440488468479 2.0000996488232 2436929.399360215 3.64078442818546 125.753649934606 18.5425558244949 -87.9090719262005 1110060.27710355 T 14 CATAB v2.0f-lin.ifort 2020-Dec-18 05:58:06 2020-Dec-18 05:58
1971-Jul-07 12:55 00:03 Jupiter 1.86396736586485 1.86396596682279 1.86396876490701 2.51395996981879 2.32618923917056 2441140.038359075 2.82466274484715 122.748655844947 26.9103288761897 83.7168391527055 1282706.11581181 T 14 CATAB v2.0f-lin.ifort 2020-Dec-18 05:58:06 2020-Dec-18 05:58
1982-Dec-27 00:26 00:02 Jupiter 1.96510654926362 1.96510536879582 1.96510772973165 2.92427184106605 2.7729592701114 2445330.517896297 2.04750383442717 108.618016780557 32.0684340176352 79.0306185735273 1496033.91479635 T 14 CATAB v2.0f-lin.ifort 2020-Dec-18 05:58:06 2020-Dec-18 05:58
2129-Sep-27 17:11 00:05 Jupiter 1.8332569794936 1.83325447701701 1.83325948198104 3.51507068246262 3.38107362461192 2498931.215855567 4.62223923378424 274.200354699037 33.033950432305 69.8495700150687 1501824.48458451 T 14 CATAB v2.0f-lin.ifort 2020-Dec-18 05:58:06 2020-Dec-18 05:58
2141-Feb-08 05:54 00:05 Jupiter 1.70266488420287 1.70266274290428 1.70266702551482 2.93515645242747 2.76047205488045 2503082.746090336 4.65953438977828 294.017120931864 27.783560438708 78.0591113202381 1317236.327258 T 14 CATAB v2.0f-lin.ifort 2020-Dec-18 05:58:06 2020-Dec-18 05:58
2152-Jul-27 15:12 00:05 Jupiter 1.61971306882434 1.61971145897994 1.61971467868218 2.5471131015523 2.33278655177434 2507270.133543234 4.72027776594416 305.788695967746 24.7924783983417 86.5027263702876 1228947.47883276 T 14 CATAB v2.0f-lin.ifort 2020-Dec-18 05:58:06 2020-Dec-18 05:58
2164-Feb-16 04:23 00:05 Jupiter 1.57830791031928 1.57830681309059 1.57830900755829 2.3091792875997 2.06372941723988 2511490.682902933 5.03112305165816 319.634771477075 31.2194206914913 -86.0605326759913 1217278.87296569 T 14 CATAB v2.0f-lin.ifort 2020-Dec-18 05:58:06 2020-Dec-18 05:58
2175-Oct-03 07:31 00:06 Jupiter 1.55945070440434 1.55944997989348 1.55945142891688 2.16292046734003 1.89523511542585 2515737.813356593 5.77997669702536 345.973558209282 41.8052529117871 -79.7599069465726 1251632.18178261 T 14 CATAB v2.0f-lin.ifort 2020-Dec-18 05:58:06 2020-Dec-18 05:58
2187-Jun-04 13:54 00:07 Jupiter 1.55286483546678 1.5528640705925 1.55286560035165 2.06481548342355 1.78116451270056 2520000.079236789 7.10194272789671 385.712141353431 52.3417698974604 -73.9647914132831 1325084.07278442 T 14 CATAB v2.0f-lin.ifort 2020-Dec-18 05:58:06 2020-Dec-18 05:58
2199-Feb-09 13:18 00:09 Jupiter 1.56411030448278 1.56410881082041 1.56411179817575 2.01515543115926 1.72562417709384 2524268.053888589 9.09807857412075 424.870925965436 58.3404984255451 -68.9652892469961 1482060.52985862 T 14 CATAB v2.0f-lin.ifort 2020-Dec-18 05:58:06 2020-Dec-18 05:58
Ephemeris | Orbit Diagram | Orbital Elements | Mission Design | Physical Parameters | Discovery Circumstances | Close-Approach Data ]
ABOUT SSD CREDITS/AWARDS PRIVACY/COPYRIGHT GLOSSARY LINKS
FirstGov 2021-Jan-21 05:19 UT
(server date/time)  
NASA Home Page
Site Manager:   Ryan S. Park
Webmaster  Alan B. Chamberlin